FW1989 Weather Reports


time (UTC)temp
F
wind
direction
speed
knots
gust
knots
rain 1hr
in
rain 24hr
in
rain mn
in
humidity
%
barometer
mb
20260505041517 61 318 15.6 25.2 0.01 0.01 0.01 76 1002.5
20260505040013 64 340 17.4 20.9 0.00 0.00 0.00 65 1001.7
20260505031533 68 205 4.3 9.6 0.00 0.00 0.00 54 1000.0
20260505030032 69 274 9.6 17.4 0.00 0.00 0.00 54 1000.0
20260505024530 69 197 7.0 12.2 0.00 0.00 0.00 53 1000.0
20260505023030 69 212 10.4 16.5 0.00 0.00 0.00 52 999.8
20260505021529 69 211 9.6 16.5 0.00 0.00 0.00 51 999.9
20260505020028 70 223 7.0 18.2 0.00 0.00 0.00 51 1000.0
20260505014528 70 209 7.8 15.6 0.00 0.00 0.00 50 999.8
20260505013027 71 208 10.4 17.4 0.00 0.00 0.00 48 999.6
20260505011528 71 208 8.7 15.6 0.00 0.00 0.00 49 999.4
20260505010026 71 200 9.6 16.5 0.00 0.00 0.00 48 999.3
20260505004526 72 192 8.7 16.5 0.00 0.00 0.00 47 999.3
20260505003025 72 219 7.0 12.2 0.00 0.00 0.00 48 999.4
20260505001524 73 187 6.1 11.3 0.00 0.00 0.00 48 999.3
20260505000026 73 236 7.0 16.5 0.00 0.00 0.00 49 999.2
20260504234522 73 218 7.0 16.5 0.00 0.00 0.00 49 999.1
20260504233021 74 220 8.7 15.6 0.00 0.00 0.00 49 999.2
20260504231520 73 209 8.7 18.2 0.00 0.00 0.00 53 999.5
20260504230017 73 217 7.8 20.9 0.00 0.00 0.00 52 999.9
20260504224517 73 235 10.4 18.2 0.00 0.00 0.00 54 1000.2
20260504223015 73 208 9.6 19.1 0.00 0.00 0.00 54 1000.5
20260504214509 72 217 9.6 17.4 0.00 0.00 0.00 53 1000.8
20260504213008 73 214 9.6 20.0 0.00 0.00 0.00 52 1000.9
20260504211502 71 207 7.8 17.4 0.00 0.00 0.00 53 1001.0
20260504210004 72 207 13.9 22.6 0.00 0.00 0.00 49 1000.9
20260504204503 74 209 11.3 17.4 0.00 0.00 0.00 47 1001.1
20260504203001 74 227 13.0 20.9 0.00 0.00 0.00 44 1000.9
20260504201632 75 241 13.9 24.3 0.00 0.00 0.00 45 1000.8
20260504193049 74 268 17.4 26.9 0.00 0.03 0.00 46 1001.3
20260504191554 74 254 7.8 21.7 0.00 0.03 0.00 49 1001.3
20260504190052 75 256 12.2 26.1 0.00 0.03 0.00 48 1001.5
20260504184557 75 267 15.6 34.8 0.00 0.09 0.00 46 1001.6
20260504183050 75 217 12.2 26.1 0.00 0.09 0.00 47 1001.5
20260504181547 75 257 11.3 25.2 0.00 0.09 0.00 48 1001.7
20260504180038 74 229 11.3 22.6 0.00 0.09 0.00 49 1001.6
20260504174535 73 218 12.2 25.2 0.00 0.09 0.00 51 1001.7
20260504173033 72 205 12.2 25.2 0.00 0.09 0.00 54 1001.8
20260504171529 72 223 10.4 23.5 0.00 0.09 0.00 53 1001.8
20260504081536 52 203 11.3 15.6 0.00 0.09 0.00 73 1005.3
20260504050005 53 212 8.7 11.3 0.00 0.09 0.00 70 1007.1
20260504044508 53 201 8.7 14.8 0.00 0.09 0.00 72 1007.2
20260504043102 52 202 10.4 13.9 0.00 0.09 0.00 75 1007.2